"datetime","temp","dp","rain_mm","uv","solar","mb","wind_mph","gust_mph","windchill","rh"
"2019-02-08 00:00:00",6.6,"",0.0,0.0,0,1007.8,3,8,4.0,""
"2019-02-08 00:01:00",6.6,"",0.0,0.0,0,1007.9,0,1,"",""
"2019-02-08 00:02:00",6.6,"",0.0,0.0,0,1007.8,0,2,"",""
"2019-02-08 00:03:00",6.6,"",0.0,0.0,0,1007.9,2,4,5.4,""
"2019-02-08 00:04:00",6.6,"",0.0,0.0,0,1007.8,3,6,4.6,""
"2019-02-08 00:05:00",6.7,"",0.0,0.0,0,1007.8,3,6,4.8,""
"2019-02-08 00:06:00",6.7,"",0.0,0.0,0,1007.8,2,4,5.5,""
"2019-02-08 00:07:00",6.7,"",0.0,0.0,0,1007.8,3,10,3.7,""
"2019-02-08 00:08:00",6.7,"",0.0,0.0,0,1007.9,3,6,4.8,""
"2019-02-08 00:09:00",6.7,"",0.0,0.0,0,1007.8,2,3,"",""
"2019-02-08 00:10:00",6.7,"",0.0,0.0,0,1007.8,2,3,"",""
"2019-02-08 00:11:00",6.8,"",0.0,0.0,0,1007.8,4,7,4.4,""
"2019-02-08 00:12:00",6.8,"",0.0,0.0,0,1007.7,4,7,4.6,""
"2019-02-08 00:13:00",6.8,"",0.0,0.0,0,1007.7,3,7,4.6,""
"2019-02-08 00:14:00",6.8,"",0.0,0.0,0,1007.8,3,5,5.2,""
"2019-02-08 00:15:00",6.8,"",0.0,0.0,0,1007.7,2,3,"",""
"2019-02-08 00:16:00",6.9,"",0.0,0.0,0,1007.7,3,7,4.6,""
"2019-02-08 00:17:00",6.9,"",0.0,0.0,0,1007.7,2,3,"",""
"2019-02-08 00:18:00",6.9,"",0.0,0.0,0,1007.8,1,3,"",""
"2019-02-08 00:19:00",6.9,"",0.0,0.0,0,1007.7,3,6,5.0,""
"2019-02-08 00:20:00",6.9,"",0.0,0.0,0,1007.7,1,3,"",""
"2019-02-08 00:21:00",6.9,"",0.0,0.0,0,1007.7,3,7,4.7,""
"2019-02-08 00:22:00",6.9,"",0.0,0.0,0,1007.7,2,5,5.4,""
"2019-02-08 00:23:00",7.0,"",0.0,0.0,0,1007.7,4,8,4.4,""
"2019-02-08 00:24:00",7.0,"",0.0,0.0,0,1007.6,3,4,5.9,""
"2019-02-08 00:25:00",7.0,"",0.0,0.0,0,1007.6,5,9,4.3,""
"2019-02-08 00:26:00",7.0,"",0.0,0.0,0,1007.5,5,8,4.5,""
"2019-02-08 00:27:00",7.1,"",0.0,0.0,0,1007.6,3,4,5.9,""
"2019-02-08 00:28:00",7.1,"",0.0,0.0,0,1007.6,4,6,5.2,""
"2019-02-08 00:29:00",7.1,"",0.0,0.0,0,1007.5,4,5,5.6,""
"2019-02-08 00:30:00",7.1,"",0.0,0.0,0,1007.6,3,6,5.2,""
"2019-02-08 00:31:00",7.1,"",0.0,0.0,0,1007.5,1,4,6.0,""
"2019-02-08 00:32:00",7.1,"",0.0,0.0,0,1007.6,6,9,4.4,""
"2019-02-08 00:33:00",7.1,"",0.0,0.0,0,1007.6,7,14,3.5,""
"2019-02-08 00:34:00",7.1,"",0.0,0.0,0,1007.6,4,7,4.9,""
"2019-02-08 00:35:00",7.2,"",0.0,0.0,0,1007.5,2,3,"",""
"2019-02-08 00:36:00",7.2,"",0.0,0.0,0,1007.6,1,2,"",""
"2019-02-08 00:37:00",7.2,"",0.0,0.0,0,1007.6,2,2,"",""
"2019-02-08 00:38:00",7.2,"",0.0,0.0,0,1007.5,2,2,"",""
"2019-02-08 00:39:00",7.2,"",0.0,0.0,0,1007.5,1,6,5.4,""
"2019-02-08 00:40:00",7.2,"",0.0,0.0,0,1007.5,4,6,5.4,""
"2019-02-08 00:41:00",7.2,"",0.0,0.0,0,1007.5,3,6,5.4,""
"2019-02-08 00:42:00",7.2,"",0.0,0.0,0,1007.5,1,2,"",""
"2019-02-08 00:43:00",7.2,"",0.0,0.0,0,1007.5,1,2,"",""
"2019-02-08 00:44:00",7.2,"",0.0,0.0,0,1007.4,1,2,"",""
"2019-02-08 00:45:00",7.2,"",0.0,0.0,0,1007.4,6,11,4.1,""
"2019-02-08 00:46:00",7.2,"",0.0,0.0,0,1007.4,4,8,4.8,""
"2019-02-08 00:47:00",7.2,"",0.0,0.0,0,1007.4,3,5,5.7,""
"2019-02-08 00:48:00",7.2,"",0.0,0.0,0,1007.4,6,12,3.9,""
"2019-02-08 00:49:00",7.3,"",0.0,0.0,0,1007.4,2,3,"",""
"2019-02-08 00:50:00",7.3,"",0.0,0.0,0,1007.4,2,6,5.5,""
"2019-02-08 00:51:00",7.3,"",0.0,0.0,0,1007.3,4,6,5.5,""
"2019-02-08 00:52:00",7.3,"",0.0,0.0,0,1007.3,2,4,6.2,""
"2019-02-08 00:53:00",7.3,"",0.0,0.0,0,1007.4,2,3,"",""
"2019-02-08 00:54:00",7.3,"",0.0,0.0,0,1007.3,2,4,6.2,""
"2019-02-08 00:55:00",7.3,"",0.0,0.0,0,1007.3,1,3,"",""
"2019-02-08 00:56:00",7.3,"",0.0,0.0,0,1007.2,5,11,4.2,""
"2019-02-08 00:57:00",7.3,"",0.0,0.0,0,1007.2,2,3,"",""
"2019-02-08 00:58:00",7.3,"",0.0,0.0,0,1007.3,3,5,5.8,""
"2019-02-08 00:59:00",7.3,"",0.0,0.0,0,1007.3,5,11,4.2,""
"2019-02-08 01:00:00",7.3,"",0.0,0.0,0,1007.2,3,4,6.2,""
"2019-02-08 01:01:00",7.3,"",0.0,0.0,0,1007.3,3,4,6.2,""
"2019-02-08 01:02:00",7.3,"",0.0,0.0,0,1007.2,3,6,5.5,""
"2019-02-08 01:03:00",7.3,"",0.0,0.0,0,1007.2,1,3,"",""
"2019-02-08 01:04:00",7.3,"",0.0,0.0,0,1007.2,2,3,"",""
"2019-02-08 01:05:00",7.3,"",0.0,0.0,0,1007.2,2,5,5.8,""
"2019-02-08 01:06:00",7.3,"",0.0,0.0,0,1007.2,2,4,6.2,""
"2019-02-08 01:07:00",7.3,"",0.0,0.0,0,1007.2,2,4,6.2,""
"2019-02-08 01:08:00",7.3,"",0.0,0.0,0,1007.2,3,11,4.2,""
"2019-02-08 01:09:00",7.3,"",0.0,0.0,0,1007.2,2,3,"",""
"2019-02-08 01:10:00",7.3,"",0.0,0.0,0,1007.2,1,3,"",""
"2019-02-08 01:11:00",7.4,"",0.0,0.0,0,1007.1,1,2,"",""
"2019-02-08 01:12:00",7.4,"",0.0,0.0,0,1007.1,2,3,"",""
"2019-02-08 01:13:00",7.4,"",0.0,0.0,0,1007.1,2,3,"",""
"2019-02-08 01:14:00",7.4,"",0.0,0.0,0,1007.0,2,4,6.4,""
"2019-02-08 01:15:00",7.4,"",0.0,0.0,0,1007.0,3,5,5.9,""
"2019-02-08 01:16:00",7.4,"",0.0,0.0,0,1007.0,6,10,4.6,""
"2019-02-08 01:17:00",7.4,"",0.0,0.0,0,1007.0,2,3,"",""
"2019-02-08 01:18:00",7.4,"",0.0,0.0,0,1007.0,2,3,"",""
"2019-02-08 01:19:00",7.4,"",0.0,0.0,0,1006.9,2,4,6.4,""
"2019-02-08 01:20:00",7.4,"",0.0,0.0,0,1006.9,2,5,5.9,""
"2019-02-08 01:21:00",7.4,"",0.0,0.0,0,1006.9,0,1,"",""
"2019-02-08 01:22:00",7.4,"",0.0,0.0,0,1006.9,0,0,"",""
"2019-02-08 01:23:00",7.4,"",0.0,0.0,0,1006.9,0,0,"",""
"2019-02-08 01:24:00",7.4,"",0.0,0.0,0,1006.9,2,5,5.9,""
"2019-02-08 01:25:00",7.4,"",0.0,0.0,0,1006.8,4,11,4.4,""
"2019-02-08 01:26:00",7.4,"",0.0,0.0,0,1006.8,2,4,6.4,""
"2019-02-08 01:27:00",7.4,"",0.0,0.0,0,1006.8,2,5,5.9,""
"2019-02-08 01:28:00",7.4,"",0.0,0.0,0,1006.8,2,5,5.9,""
"2019-02-08 01:29:00",7.4,"",0.0,0.0,0,1006.8,3,7,5.3,""
"2019-02-08 01:30:00",7.4,"",0.0,0.0,0,1006.7,2,4,6.4,""
"2019-02-08 01:31:00",7.4,"",0.0,0.0,0,1006.7,2,3,"",""
"2019-02-08 01:32:00",7.4,"",0.0,0.0,0,1006.8,2,4,6.4,""
"2019-02-08 01:33:00",7.4,"",0.0,0.0,0,1006.8,1,4,6.4,""
"2019-02-08 01:34:00",7.4,"",0.0,0.0,0,1006.7,3,6,5.6,""
"2019-02-08 01:35:00",7.4,"",0.0,0.0,0,1006.7,1,3,"",""
"2019-02-08 01:36:00",7.4,"",0.0,0.0,0,1006.6,3,5,5.9,""
"2019-02-08 01:37:00",7.4,"",0.0,0.0,0,1006.6,4,7,5.3,""
"2019-02-08 01:38:00",7.4,"",0.0,0.0,0,1006.7,4,5,5.9,""
"2019-02-08 01:39:00",7.4,"",0.0,0.0,0,1006.7,3,6,5.6,""
"2019-02-08 01:40:00",7.4,"",0.0,0.0,0,1006.7,3,4,6.4,""
"2019-02-08 01:41:00",7.4,"",0.0,0.0,0,1006.7,2,3,"",""
"2019-02-08 01:42:00",7.4,"",0.0,0.0,0,1006.7,6,11,4.4,""
"2019-02-08 01:43:00",7.5,"",0.0,0.0,0,1006.6,5,8,5.1,""
"2019-02-08 01:44:00",7.5,"",0.0,0.0,0,1006.6,2,4,6.5,""
"2019-02-08 01:45:00",7.5,"",0.0,0.0,0,1006.6,1,4,6.5,""
"2019-02-08 01:46:00",7.5,"",0.0,0.0,0,1006.6,2,4,6.5,""
"2019-02-08 01:47:00",7.5,"",0.0,0.0,0,1006.6,2,4,6.5,""
"2019-02-08 01:48:00",7.5,"",0.0,0.0,0,1006.6,3,6,5.7,""
"2019-02-08 01:49:00",7.5,"",0.0,0.0,0,1006.6,5,7,5.4,""
"2019-02-08 01:50:00",7.5,"",0.0,0.0,0,1006.6,4,7,5.4,""
"2019-02-08 01:51:00",7.6,"",0.0,0.0,0,1006.6,2,3,"",""
"2019-02-08 01:52:00",7.6,"",0.0,0.0,0,1006.6,2,3,"",""
"2019-02-08 01:53:00",7.6,"",0.0,0.0,0,1006.6,3,5,6.2,""
"2019-02-08 01:54:00",7.6,"",0.0,0.0,0,1006.6,3,6,5.8,""
"2019-02-08 01:55:00",7.6,"",0.0,0.0,0,1006.6,1,2,"",""
"2019-02-08 01:56:00",7.6,"",0.0,0.0,0,1006.6,2,3,"",""
"2019-02-08 01:57:00",7.6,"",0.0,0.0,0,1006.6,4,5,6.2,""
"2019-02-08 01:58:00",7.6,"",0.0,0.0,0,1006.6,3,5,6.2,""
"2019-02-08 01:59:00",7.6,"",0.0,0.0,0,1006.6,3,5,6.2,""
"2019-02-08 02:00:00",7.6,"",0.0,0.0,0,1006.5,2,4,6.6,""
"2019-02-08 02:01:00",7.6,"",0.0,0.0,0,1006.5,2,5,6.2,""
"2019-02-08 02:02:00",7.6,"",0.0,0.0,0,1006.5,3,6,5.8,""
"2019-02-08 02:03:00",7.6,"",0.0,0.0,0,1006.6,3,4,6.6,""
"2019-02-08 02:04:00",7.6,"",0.0,0.0,0,1006.5,2,3,"",""
"2019-02-08 02:05:00",7.6,"",0.0,0.0,0,1006.6,4,7,5.5,""
"2019-02-08 02:06:00",7.6,"",0.0,0.0,0,1006.5,4,6,5.8,""
"2019-02-08 02:07:00",7.6,"",0.0,0.0,0,1006.5,3,5,6.2,""
"2019-02-08 02:08:00",7.6,"",0.0,0.0,0,1006.4,4,10,4.8,""
"2019-02-08 02:09:00",7.6,"",0.0,0.0,0,1006.4,2,3,"",""
"2019-02-08 02:10:00",7.6,"",0.0,0.0,0,1006.4,3,5,6.2,""
"2019-02-08 02:11:00",7.6,"",0.0,0.0,0,1006.4,1,3,"",""
"2019-02-08 02:12:00",7.6,"",0.0,0.0,0,1006.5,5,11,4.6,""
"2019-02-08 02:13:00",7.6,"",0.0,0.0,0,1006.5,2,4,6.6,""
"2019-02-08 02:14:00",7.7,"",0.0,0.0,0,1006.4,4,7,5.5,""
"2019-02-08 02:15:00",7.7,"",0.0,0.0,0,1006.4,4,6,6.0,""
"2019-02-08 02:16:00",7.7,"",0.0,0.0,0,1006.3,3,6,6.0,""
"2019-02-08 02:17:00",7.7,"",0.0,0.0,0,1006.3,3,6,6.0,""
"2019-02-08 02:18:00",7.7,"",0.0,0.0,0,1006.3,3,6,6.0,""
"2019-02-08 02:19:00",7.7,"",0.0,0.0,0,1006.3,2,3,"",""
"2019-02-08 02:20:00",7.7,"",0.2,0.0,0,1006.3,3,4,6.7,""
"2019-02-08 02:21:00",7.7,"",0.2,0.0,0,1006.3,3,5,6.3,""
"2019-02-08 02:22:00",7.7,"",0.2,0.0,0,1006.2,2,4,6.7,""
"2019-02-08 02:23:00",7.7,"",0.2,0.0,0,1006.2,2,3,"",""
"2019-02-08 02:24:00",7.7,"",0.2,0.0,0,1006.2,1,2,"",""
"2019-02-08 02:25:00",7.7,"",0.2,0.0,0,1006.1,2,4,6.7,""
"2019-02-08 02:26:00",7.7,"",0.2,0.0,0,1006.1,3,5,6.3,""
"2019-02-08 02:27:00",7.7,"",0.2,0.0,0,1006.1,2,6,6.0,""
"2019-02-08 02:28:00",7.7,"",0.2,0.0,0,1006.0,3,5,6.3,""
"2019-02-08 02:29:00",7.7,"",0.2,0.0,0,1006.0,4,6,6.0,""
"2019-02-08 02:30:00",7.7,"",0.2,0.0,0,1006.0,1,2,"",""
"2019-02-08 02:31:00",7.7,"",0.2,0.0,0,1006.0,2,3,"",""
"2019-02-08 02:32:00",7.7,"",0.2,0.0,0,1006.0,2,4,6.7,""
"2019-02-08 02:33:00",7.7,"",0.2,0.0,0,1006.0,4,6,6.0,""
"2019-02-08 02:34:00",7.7,"",0.2,0.0,0,1005.9,2,3,"",""
"2019-02-08 02:35:00",7.7,"",0.2,0.0,0,1005.9,2,3,"",""
"2019-02-08 02:36:00",7.7,"",0.2,0.0,0,1005.9,1,2,"",""
"2019-02-08 02:37:00",7.7,"",0.2,0.0,0,1005.8,2,3,"",""
"2019-02-08 02:38:00",7.7,"",0.2,0.0,0,1005.8,4,9,5.1,""
"2019-02-08 02:39:00",7.7,"",0.2,0.0,0,1005.8,4,5,6.3,""
"2019-02-08 02:40:00",7.7,"",0.2,0.0,0,1005.7,2,4,6.7,""
"2019-02-08 02:41:00",7.7,"",0.2,0.0,0,1005.7,3,7,5.7,""
"2019-02-08 02:42:00",7.7,"",0.2,0.0,0,1005.7,4,10,4.9,""
"2019-02-08 02:43:00",7.7,"",0.2,0.0,0,1005.6,2,5,6.3,""
"2019-02-08 02:44:00",7.7,"",0.2,0.0,0,1005.6,3,4,6.7,""
"2019-02-08 02:45:00",7.7,"",0.2,0.0,0,1005.6,2,4,6.7,""
"2019-02-08 02:46:00",7.7,"",0.2,0.0,0,1005.6,2,4,6.7,""
"2019-02-08 02:47:00",7.7,"",0.2,0.0,0,1005.6,3,8,5.4,""
"2019-02-08 02:48:00",7.7,"",0.2,0.0,0,1005.6,3,6,6.0,""
"2019-02-08 02:49:00",7.7,"",0.2,0.0,0,1005.6,1,3,"",""
"2019-02-08 02:50:00",7.7,"",0.2,0.0,0,1005.6,1,3,"",""
"2019-02-08 02:51:00",7.7,"",0.4,0.0,0,1005.6,2,5,6.3,""
"2019-02-08 02:52:00",7.7,"",0.4,0.0,0,1005.5,3,5,6.3,""
"2019-02-08 02:53:00",7.7,"",0.4,0.0,0,1005.5,2,4,6.7,""
"2019-02-08 02:54:00",7.7,"",0.4,0.0,0,1005.5,4,7,5.7,""
"2019-02-08 02:55:00",7.7,"",0.4,0.0,0,1005.5,3,7,5.7,""
"2019-02-08 02:56:00",7.7,"",0.4,0.0,0,1005.5,5,9,5.1,""
"2019-02-08 02:57:00",7.7,"",0.4,0.0,0,1005.5,2,3,"",""
"2019-02-08 02:58:00",7.7,"",0.4,0.0,0,1005.5,1,2,"",""
"2019-02-08 02:59:00",7.7,"",0.4,0.0,0,1005.5,2,3,"",""
"2019-02-08 03:00:00",7.7,"",0.4,0.0,0,1005.5,1,3,"",""
"2019-02-08 03:01:00",7.7,"",0.4,0.0,0,1005.5,3,4,6.7,""
"2019-02-08 03:02:00",7.7,"",0.4,0.0,0,1005.5,2,3,"",""
"2019-02-08 03:03:00",7.7,"",0.4,0.0,0,1005.4,3,5,6.3,""
"2019-02-08 03:04:00",7.7,"",0.4,0.0,0,1005.5,3,8,5.4,""
"2019-02-08 03:05:00",7.7,"",0.4,0.0,0,1005.4,6,10,4.9,""
"2019-02-08 03:06:00",7.7,"",0.4,0.0,0,1005.5,2,5,6.3,""
"2019-02-08 03:07:00",7.7,"",0.4,0.0,0,1005.4,2,4,6.7,""
"2019-02-08 03:08:00",7.7,"",0.4,0.0,0,1005.4,2,4,6.7,""
"2019-02-08 03:09:00",7.7,"",0.4,0.0,0,1005.4,3,7,5.7,""
"2019-02-08 03:10:00",7.7,"",0.4,0.0,0,1005.4,4,10,4.9,""
"2019-02-08 03:11:00",7.8,"",0.4,0.0,0,1005.3,2,5,6.3,""
"2019-02-08 03:12:00",7.8,"",0.4,0.0,0,1005.4,3,6,6.0,""
"2019-02-08 03:13:00",7.7,"",0.4,0.0,0,1005.3,2,3,"",""
"2019-02-08 03:14:00",7.8,"",0.4,0.0,0,1005.2,2,4,6.7,""
"2019-02-08 03:15:00",7.8,"",0.4,0.0,0,1005.2,2,3,"",""
"2019-02-08 03:16:00",7.8,"",0.4,0.0,0,1005.2,4,5,6.4,""
"2019-02-08 03:17:00",7.8,"",0.4,0.0,0,1005.1,3,5,6.4,""
"2019-02-08 03:18:00",7.8,"",0.4,0.0,0,1005.1,3,10,5.1,""
"2019-02-08 03:19:00",7.8,"",0.4,0.0,0,1005.1,2,6,6.1,""
"2019-02-08 03:20:00",7.8,"",0.4,0.0,0,1005.1,2,3,"",""
"2019-02-08 03:21:00",7.8,"",0.4,0.0,0,1005.1,1,2,"",""
"2019-02-08 03:22:00",7.8,"",0.4,0.0,0,1005.0,2,5,6.4,""
"2019-02-08 03:23:00",7.8,"",0.4,0.0,0,1005.1,2,4,6.8,""
"2019-02-08 03:24:00",7.8,"",0.4,0.0,0,1005.0,3,11,4.9,""
"2019-02-08 03:25:00",7.8,"",0.4,0.0,0,1005.0,5,9,5.3,""
"2019-02-08 03:26:00",7.8,"",0.4,0.0,0,1005.0,1,3,"",""
"2019-02-08 03:27:00",7.8,"",0.4,0.0,0,1005.0,2,4,6.8,""
"2019-02-08 03:28:00",7.8,"",0.4,0.0,0,1004.9,1,2,"",""
"2019-02-08 03:29:00",7.8,"",0.4,0.0,0,1005.0,4,11,4.9,""
"2019-02-08 03:30:00",7.8,"",0.4,0.0,0,1004.9,2,5,6.4,""
"2019-02-08 03:31:00",7.8,"",0.4,0.0,0,1004.9,5,8,5.5,""
"2019-02-08 03:32:00",7.8,"",0.4,0.0,0,1004.9,1,4,6.8,""
"2019-02-08 03:33:00",7.8,"",0.4,0.0,0,1004.8,2,4,6.8,""
"2019-02-08 03:34:00",7.9,"",0.4,0.0,0,1004.8,1,3,"",""
"2019-02-08 03:35:00",7.9,"",0.4,0.0,0,1004.8,5,9,5.4,""
"2019-02-08 03:36:00",7.9,"",0.4,0.0,0,1004.7,4,8,5.6,""
"2019-02-08 03:37:00",7.9,"",0.4,0.0,0,1004.7,5,13,4.6,""
"2019-02-08 03:38:00",7.9,"",0.4,0.0,0,1004.6,3,5,6.5,""
"2019-02-08 03:39:00",7.9,"",0.4,0.0,0,1004.7,2,4,6.9,""
"2019-02-08 03:40:00",7.9,"",0.4,0.0,0,1004.7,1,5,6.5,""
"2019-02-08 03:41:00",7.9,"",0.4,0.0,0,1004.6,4,7,5.9,""
"2019-02-08 03:42:00",8.0,"",0.4,0.0,0,1004.8,7,15,4.4,""
"2019-02-08 03:43:00",8.0,"",0.4,0.0,0,1004.6,4,11,5.1,""
"2019-02-08 03:44:00",8.0,"",0.4,0.0,0,1004.7,4,6,6.3,""
"2019-02-08 03:45:00",8.1,"",0.4,0.0,0,1004.6,4,6,6.3,""
"2019-02-08 03:46:00",8.1,"",0.4,0.0,0,1004.6,3,12,5.1,""
"2019-02-08 03:47:00",8.1,"",0.4,0.0,0,1004.5,4,9,5.6,""
"2019-02-08 03:48:00",8.1,"",0.4,0.0,0,1004.5,6,10,5.4,""
"2019-02-08 03:49:00",8.1,"",0.4,0.0,0,1004.5,4,8,5.9,""
"2019-02-08 03:50:00",8.1,"",0.4,0.0,0,1004.5,4,6,6.4,""
"2019-02-08 03:51:00",8.1,"",0.4,0.0,0,1004.5,3,4,7.2,""
"2019-02-08 03:52:00",8.1,"",0.4,0.0,0,1004.4,4,12,5.1,""
"2019-02-08 03:53:00",8.1,"",0.4,0.0,0,1004.5,3,6,6.4,""
"2019-02-08 03:54:00",8.2,"",0.4,0.0,0,1004.5,2,5,6.8,""
"2019-02-08 03:55:00",8.2,"",0.4,0.0,0,1004.5,2,5,6.9,""
"2019-02-08 03:56:00",8.2,"",0.4,0.0,0,1004.4,2,3,"",""
"2019-02-08 03:57:00",8.2,"",0.4,0.0,0,1004.4,2,4,7.3,""
"2019-02-08 03:58:00",8.2,"",0.6,0.0,0,1004.4,2,3,"",""
"2019-02-08 03:59:00",8.2,"",0.6,0.0,0,1004.4,3,8,6.0,""
"2019-02-08 04:00:00",8.2,"",0.6,0.0,0,1004.4,5,11,5.4,""
"2019-02-08 04:01:00",8.2,"",0.6,0.0,0,1004.4,3,4,7.3,""
"2019-02-08 04:02:00",8.2,"",0.6,0.0,0,1004.4,2,4,7.3,""
"2019-02-08 04:03:00",8.2,"",0.6,0.0,0,1004.4,4,7,6.3,""
"2019-02-08 04:04:00",8.2,"",0.6,0.0,0,1004.4,6,11,5.4,""
"2019-02-08 04:05:00",8.2,"",0.6,0.0,0,1004.3,3,7,6.3,""
"2019-02-08 04:06:00",8.2,"",0.6,0.0,0,1004.3,2,4,7.3,""
"2019-02-08 04:07:00",8.2,"",0.6,0.0,0,1004.3,5,9,5.8,""
"2019-02-08 04:08:00",8.2,"",0.6,0.0,0,1004.3,3,5,6.9,""
"2019-02-08 04:09:00",8.2,"",0.6,0.0,0,1004.3,2,4,7.3,""
"2019-02-08 04:10:00",8.2,"",0.6,0.0,0,1004.3,2,6,6.5,""
"2019-02-08 04:11:00",8.2,"",0.8,0.0,0,1004.3,6,11,5.4,""
"2019-02-08 04:12:00",8.2,"",0.8,0.0,0,1004.3,2,2,"",""
"2019-02-08 04:13:00",8.2,"",0.8,0.0,0,1004.2,3,5,6.9,""
"2019-02-08 04:14:00",8.2,"",0.8,0.0,0,1004.2,4,8,6.0,""
"2019-02-08 04:15:00",8.2,"",0.8,0.0,0,1004.2,5,9,5.8,""
"2019-02-08 04:16:00",8.2,"",0.8,0.0,0,1004.2,3,6,6.5,""
"2019-02-08 04:17:00",8.2,"",0.8,0.0,0,1004.2,3,6,6.5,""
"2019-02-08 04:18:00",8.2,"",0.8,0.0,0,1004.2,4,6,6.5,""
"2019-02-08 04:19:00",8.2,"",0.8,0.0,0,1004.2,4,9,5.8,""
"2019-02-08 04:20:00",8.2,"",0.8,0.0,0,1004.1,3,7,6.3,""
"2019-02-08 04:21:00",8.2,"",0.8,0.0,0,1004.2,2,3,"",""
"2019-02-08 04:22:00",8.2,"",0.8,0.0,0,1004.1,4,9,5.8,""
"2019-02-08 04:23:00",8.2,"",0.8,0.0,0,1004.1,4,8,6.0,""
"2019-02-08 04:24:00",8.3,"",0.8,0.0,0,1004.1,4,6,6.7,""
"2019-02-08 04:25:00",8.3,"",0.8,0.0,0,1004.1,4,8,6.1,""
"2019-02-08 04:26:00",8.3,"",0.8,0.0,0,1004.1,3,5,7.0,""
"2019-02-08 04:27:00",8.3,"",1.0,0.0,0,1004.1,5,7,6.4,""
"2019-02-08 04:28:00",8.3,"",1.0,0.0,0,1004.1,4,7,6.4,""
"2019-02-08 04:29:00",8.3,"",1.0,0.0,0,1004.0,2,3,"",""
"2019-02-08 04:30:00",8.3,"",1.0,0.0,0,1004.0,2,3,"",""
"2019-02-08 04:31:00",8.3,"",1.0,0.0,0,1004.0,2,3,"",""
"2019-02-08 04:32:00",8.3,"",1.0,0.0,0,1003.9,3,4,7.4,""
"2019-02-08 04:33:00",8.3,"",1.0,0.0,0,1003.9,5,8,6.1,""
"2019-02-08 04:34:00",8.3,"",1.0,0.0,0,1003.9,5,9,5.9,""
"2019-02-08 04:35:00",8.3,"",1.0,0.0,0,1003.8,6,17,4.6,""
"2019-02-08 04:36:00",8.3,"",1.0,0.0,0,1003.9,5,7,6.4,""
"2019-02-08 04:37:00",8.3,"",1.0,0.0,0,1003.9,2,4,7.4,""
"2019-02-08 04:38:00",8.3,"",1.0,0.0,0,1003.9,3,6,6.7,""
"2019-02-08 04:39:00",8.3,"",1.0,0.0,0,1003.8,2,4,7.4,""
"2019-02-08 04:40:00",8.3,"",1.0,0.0,0,1003.8,3,5,7.0,""
"2019-02-08 04:41:00",8.3,"",1.0,0.0,0,1003.8,2,3,"",""
"2019-02-08 04:42:00",8.3,"",1.0,0.0,0,1003.8,3,6,6.7,""
"2019-02-08 04:43:00",8.3,"",1.0,0.0,0,1003.7,3,6,6.7,""
"2019-02-08 04:44:00",8.3,"",1.0,0.0,0,1003.7,3,8,6.1,""
"2019-02-08 04:45:00",8.3,"",1.2,0.0,0,1003.7,2,4,7.4,""
"2019-02-08 04:46:00",8.3,"",1.2,0.0,0,1003.7,1,3,"",""
"2019-02-08 04:47:00",8.3,"",1.2,0.0,0,1003.7,3,4,7.4,""
"2019-02-08 04:48:00",8.3,"",1.2,0.0,0,1003.7,5,10,5.7,""
"2019-02-08 04:49:00",8.3,"",1.2,0.0,0,1003.7,5,11,5.5,""
"2019-02-08 04:50:00",8.3,"",1.2,0.0,0,1003.6,5,10,5.7,""
"2019-02-08 04:51:00",8.3,"",1.2,0.0,0,1003.6,6,13,5.1,""
"2019-02-08 04:52:00",8.3,"",1.2,0.0,0,1003.6,8,19,4.3,""
"2019-02-08 04:53:00",8.3,"",1.2,0.0,0,1003.6,5,7,6.4,""
"2019-02-08 04:54:00",8.3,"",1.2,0.0,0,1003.5,5,11,5.6,""
"2019-02-08 04:55:00",8.4,"",1.2,0.0,0,1003.6,3,6,6.8,""
"2019-02-08 04:56:00",8.4,"",1.2,0.0,0,1003.5,3,8,6.2,""
"2019-02-08 04:57:00",8.4,"",1.2,0.0,0,1003.6,1,2,"",""
"2019-02-08 04:58:00",8.4,"",1.2,0.0,0,1003.6,3,6,6.8,""
"2019-02-08 04:59:00",8.4,"",1.2,0.0,0,1003.5,5,10,5.8,""
"2019-02-08 05:00:00",8.4,"",1.2,0.0,0,1003.5,4,7,6.5,""
"2019-02-08 05:01:00",8.4,"",1.2,0.0,0,1003.4,2,5,7.1,""
"2019-02-08 05:02:00",8.4,"",1.2,0.0,0,1003.5,2,3,"",""
"2019-02-08 05:03:00",8.4,"",1.2,0.0,0,1003.5,3,5,7.1,""
"2019-02-08 05:04:00",8.4,"",1.2,0.0,0,1003.5,2,4,7.5,""
"2019-02-08 05:05:00",8.4,"",1.2,0.0,0,1003.6,7,14,5.1,""
"2019-02-08 05:06:00",8.4,"",1.2,0.0,0,1003.4,5,8,6.2,""
"2019-02-08 05:07:00",8.4,"",1.2,0.0,0,1003.4,4,6,6.8,""
"2019-02-08 05:08:00",8.4,"",1.2,0.0,0,1003.4,3,7,6.5,""
"2019-02-08 05:09:00",8.4,"",1.2,0.0,0,1003.4,2,4,7.5,""
"2019-02-08 05:10:00",8.4,"",1.2,0.0,0,1003.4,3,5,7.1,""
"2019-02-08 05:11:00",8.4,"",1.2,0.0,0,1003.3,3,6,6.8,""
"2019-02-08 05:12:00",8.4,"",1.2,0.0,0,1003.4,6,11,5.6,""
"2019-02-08 05:13:00",8.4,"",1.2,0.0,0,1003.3,4,8,6.2,""
"2019-02-08 05:14:00",8.4,"",1.2,0.0,0,1003.3,1,3,"",""
"2019-02-08 05:15:00",8.4,"",1.4,0.0,0,1003.3,2,4,7.5,""
"2019-02-08 05:16:00",8.4,"",1.4,0.0,0,1003.4,7,10,5.8,""
"2019-02-08 05:17:00",8.4,"",1.4,0.0,0,1003.2,2,3,"",""
"2019-02-08 05:18:00",8.4,"",1.4,0.0,0,1003.3,2,5,7.1,""
"2019-02-08 05:19:00",8.4,"",1.4,0.0,0,1003.3,6,11,5.6,""
"2019-02-08 05:20:00",8.4,"",1.4,0.0,0,1003.2,4,7,6.5,""
"2019-02-08 05:21:00",8.4,"",1.4,0.0,0,1003.2,5,10,5.8,""
"2019-02-08 05:22:00",8.4,"",1.4,0.0,0,1003.3,7,15,5.0,""
"2019-02-08 05:23:00",8.4,"",1.4,0.0,0,1003.3,9,14,5.1,""
"2019-02-08 05:24:00",8.4,"",1.4,0.0,0,1003.2,3,8,6.2,""
"2019-02-08 05:25:00",8.4,"",1.4,0.0,0,1003.1,4,8,6.2,""
"2019-02-08 05:26:00",8.4,"",1.4,0.0,0,1003.1,4,7,6.5,""
"2019-02-08 05:27:00",8.4,"",1.4,0.0,0,1003.1,6,10,5.8,""
"2019-02-08 05:28:00",8.4,"",1.4,0.0,0,1003.1,5,11,5.6,""
"2019-02-08 05:29:00",8.4,"",1.4,0.0,0,1002.9,4,8,6.2,""
"2019-02-08 05:30:00",8.4,"",1.4,0.0,0,1003.0,7,15,5.0,""
"2019-02-08 05:31:00",8.4,"",1.4,0.0,0,1003.0,5,10,5.8,""
"2019-02-08 05:32:00",8.4,"",1.4,0.0,0,1003.1,6,9,6.0,""
"2019-02-08 05:33:00",8.4,"",1.4,0.0,0,1003.0,4,6,6.8,""
"2019-02-08 05:34:00",8.4,"",1.6,0.0,0,1002.9,6,18,4.6,""
"2019-02-08 05:35:00",8.4,"",1.6,0.0,0,1003.0,5,11,5.6,""
"2019-02-08 05:36:00",8.4,"",1.6,0.0,0,1002.9,5,10,5.8,""
"2019-02-08 05:37:00",8.4,"",1.6,0.0,0,1002.9,5,9,6.0,""
"2019-02-08 05:38:00",8.4,"",1.6,0.0,0,1002.9,4,6,6.8,""
"2019-02-08 05:39:00",8.4,"",1.6,0.0,0,1003.0,6,8,6.2,""
"2019-02-08 05:40:00",8.4,"",1.6,0.0,0,1002.9,4,8,6.2,""
"2019-02-08 05:41:00",8.4,"",1.6,0.0,0,1002.7,7,17,4.7,""
"2019-02-08 05:42:00",8.4,"",1.6,0.0,0,1002.8,4,8,6.2,""
"2019-02-08 05:43:00",8.4,"",1.6,0.0,0,1002.8,3,4,7.5,""
"2019-02-08 05:44:00",8.4,"",1.6,0.0,0,1002.8,2,4,7.5,""
"2019-02-08 05:45:00",8.4,"",1.6,0.0,0,1002.8,3,7,6.5,""
"2019-02-08 05:46:00",8.4,"",1.6,0.0,0,1002.7,5,9,6.0,""
"2019-02-08 05:47:00",8.4,"",1.6,0.0,0,1002.8,5,10,5.8,""
"2019-02-08 05:48:00",8.4,"",1.6,0.0,0,1002.7,3,4,7.5,""
"2019-02-08 05:49:00",8.4,"",1.6,0.0,0,1002.7,4,6,6.8,""
"2019-02-08 05:50:00",8.4,"",1.6,0.0,0,1002.7,6,14,5.1,""
"2019-02-08 05:51:00",8.4,"",1.8,0.0,0,1002.7,5,7,6.5,""
"2019-02-08 05:52:00",8.4,"",1.8,0.0,0,1002.6,3,6,6.8,""
"2019-02-08 05:53:00",8.4,"",1.8,0.0,0,1002.7,9,14,5.1,""
"2019-02-08 05:54:00",8.4,"",1.8,0.0,0,1002.6,5,10,5.8,""
"2019-02-08 05:55:00",8.4,"",1.8,0.0,0,1002.6,5,8,6.2,""
"2019-02-08 05:56:00",8.4,"",1.8,0.0,0,1002.6,5,10,5.8,""
"2019-02-08 05:57:00",8.4,"",1.8,0.0,0,1002.6,4,9,6.0,""
"2019-02-08 05:58:00",8.4,"",1.8,0.0,0,1002.6,4,8,6.2,""
"2019-02-08 05:59:00",8.4,"",1.8,0.0,0,1002.5,6,10,5.8,""
"2019-02-08 06:00:00",8.4,"",1.8,0.0,0,1002.6,5,14,5.1,""
"2019-02-08 06:01:00",8.4,"",1.8,0.0,0,1002.6,5,9,6.0,""
"2019-02-08 06:02:00",8.4,"",1.8,0.0,0,1002.5,5,8,6.2,""
"2019-02-08 06:03:00",8.4,"",2.0,0.0,0,1002.5,5,11,5.6,""
"2019-02-08 06:04:00",8.4,"",2.0,0.0,0,1002.5,6,10,5.8,""
"2019-02-08 06:05:00",8.4,"",2.0,0.0,0,1002.4,7,13,5.3,""
"2019-02-08 06:06:00",8.4,"",2.0,0.0,0,1002.4,6,12,5.4,""
"2019-02-08 06:07:00",8.4,"",2.0,0.0,0,1002.4,3,4,7.5,""
"2019-02-08 06:08:00",8.4,"",2.0,0.0,0,1002.4,4,6,6.8,""
"2019-02-08 06:09:00",8.4,"",2.0,0.0,0,1002.4,3,6,6.8,""
"2019-02-08 06:10:00",8.4,"",2.0,0.0,0,1002.4,3,6,6.8,""
"2019-02-08 06:11:00",8.4,"",2.0,0.0,0,1002.3,6,14,5.1,""
"2019-02-08 06:12:00",8.4,"",2.0,0.0,0,1002.3,5,11,5.6,""
"2019-02-08 06:13:00",8.4,"",2.0,0.0,0,1002.3,8,12,5.4,""
"2019-02-08 06:14:00",8.4,"",2.0,0.0,0,1002.3,6,12,5.4,""
"2019-02-08 06:15:00",8.4,"",2.0,0.0,0,1002.4,5,8,6.2,""
"2019-02-08 06:16:00",8.4,"",2.0,0.0,0,1002.3,5,9,6.0,""
"2019-02-08 06:17:00",8.3,"",2.2,0.0,0,1002.2,5,9,5.9,""
"2019-02-08 06:18:00",8.3,"",2.2,0.0,0,1002.3,3,8,6.1,""
"2019-02-08 06:19:00",8.3,"",2.2,0.0,0,1002.3,8,14,5.0,""
"2019-02-08 06:20:00",8.3,"",2.2,0.0,0,1002.3,5,10,5.7,""
"2019-02-08 06:21:00",8.3,"",2.2,0.0,0,1002.3,6,14,5.0,""
"2019-02-08 06:22:00",8.3,"",2.2,0.0,0,1002.2,5,13,5.1,""
"2019-02-08 06:23:00",8.3,"",2.2,0.0,0,1002.2,5,10,5.7,""
"2019-02-08 06:24:00",8.3,"",2.2,0.0,0,1002.2,2,9,5.9,""
"2019-02-08 06:25:00",8.3,"",2.2,0.0,0,1002.2,5,9,5.9,""
"2019-02-08 06:26:00",8.3,"",2.4,0.0,0,1002.2,4,6,6.7,""
"2019-02-08 06:27:00",8.3,"",2.4,0.0,0,1002.2,3,7,6.4,""
"2019-02-08 06:28:00",8.3,"",2.4,0.0,0,1002.1,1,3,"",""
"2019-02-08 06:29:00",8.3,"",2.4,0.0,0,1002.1,3,10,5.7,""
"2019-02-08 06:30:00",8.3,"",2.4,0.0,0,1002.1,6,10,5.7,""
"2019-02-08 06:31:00",8.3,"",2.4,0.0,0,1002.1,2,6,6.7,""
"2019-02-08 06:32:00",8.3,"",2.4,0.0,0,1002.1,3,5,7.0,""
"2019-02-08 06:33:00",8.3,"",2.6,0.0,0,1002.2,3,7,6.4,""
"2019-02-08 06:34:00",8.3,"",2.6,0.0,0,1002.1,1,3,"",""
"2019-02-08 06:35:00",8.3,"",2.6,0.0,0,1002.1,5,13,5.1,""
"2019-02-08 06:36:00",8.3,"",2.6,0.0,0,1002.0,3,6,6.7,""
"2019-02-08 06:37:00",8.3,"",2.6,0.0,0,1002.1,5,8,6.1,""
"2019-02-08 06:38:00",8.3,"",2.6,0.0,0,1002.0,4,6,6.7,""
"2019-02-08 06:39:00",8.3,"",2.6,0.0,0,1002.0,1,2,"",""
"2019-02-08 06:40:00",8.3,"",2.6,0.0,0,1002.0,2,7,6.4,""
"2019-02-08 06:41:00",8.3,"",2.6,0.0,0,1002.0,3,6,6.7,""
"2019-02-08 06:42:00",8.3,"",2.8,0.0,0,1002.0,4,6,6.7,""
"2019-02-08 06:43:00",8.3,"",2.8,0.0,0,1001.9,5,9,5.9,""
"2019-02-08 06:44:00",8.3,"",2.8,0.0,0,1001.9,4,12,5.3,""
"2019-02-08 06:45:00",8.3,"",2.8,0.0,0,1001.8,5,8,6.1,""
"2019-02-08 06:46:00",8.3,"",2.8,0.0,0,1001.9,3,8,6.1,""
"2019-02-08 06:47:00",8.3,"",2.8,0.0,0,1001.9,1,3,"",""
"2019-02-08 06:48:00",8.3,"",2.8,0.0,0,1001.8,5,8,6.1,""
"2019-02-08 06:49:00",8.3,"",2.8,0.0,0,1001.9,4,11,5.5,""
"2019-02-08 06:50:00",8.3,"",2.8,0.0,0,1001.9,4,8,6.1,""
"2019-02-08 06:51:00",8.3,"",2.8,0.0,0,1001.8,2,7,6.4,""
"2019-02-08 06:52:00",8.3,"",2.8,0.0,0,1001.9,1,3,"",""
"2019-02-08 06:53:00",8.3,"",2.8,0.0,0,1001.8,1,3,"",""
"2019-02-08 06:54:00",8.3,"",3.0,0.0,0,1002.0,3,6,6.7,""
"2019-02-08 06:55:00",8.3,"",3.0,0.0,0,1001.9,6,11,5.5,""
"2019-02-08 06:56:00",8.2,"",3.0,0.0,0,1001.9,5,9,5.9,""
"2019-02-08 06:57:00",8.2,"",3.0,0.0,0,1001.8,5,10,5.7,""
"2019-02-08 06:58:00",8.3,"",3.0,0.0,0,1001.8,5,12,5.3,""